DLH1VG VABB-VOMM

Flight info

Callsign DLH1VG
Flight time 1h 28m
Altitude 39000
Route VEVAK2A EPKOS Q9 OPAMO OPAMO2F
Aircraft A346/H-SDE2E3FGHIJ3J4J5M1RWXY/LB1D1

Departure

Time 2026-05-07 18:55
Airport Chhatrapati Shivaji Maharaj International Airport (VABB)

Arrival

Time 2026-05-07 20:24
Airport Chennai International Airport (VOMM)
Time Latitude Longitude Altitude Speed Heading
2026-05-07 17:57 19.09336 72.87027 26 ft 0 kts 60°
2026-05-07 18:38 19.09328 72.87012 49 ft 3 kts 60°
2026-05-07 18:39 19.09318 72.86992 49 ft 2 kts 60°
2026-05-07 18:39 19.09315 72.86987 49 ft 3 kts 62°
2026-05-07 18:39 19.09310 72.86977 51 ft 3 kts 71°
2026-05-07 18:39 19.09307 72.86958 49 ft 3 kts 94°
2026-05-07 18:40 19.09311 72.86940 49 ft 3 kts 118°
2026-05-07 18:40 19.09323 72.86923 49 ft 3 kts 133°
2026-05-07 18:40 19.09338 72.86907 49 ft 2 kts 135°
2026-05-07 18:40 19.09339 72.86906 49 ft 0 kts 135°
2026-05-07 18:43 19.09338 72.86907 49 ft 1 kts 135°
2026-05-07 18:43 19.09327 72.86919 49 ft 4 kts 135°
2026-05-07 18:43 19.09300 72.86947 49 ft 7 kts 135°
2026-05-07 18:43 19.09257 72.86994 52 ft 11 kts 129°
2026-05-07 18:44 19.09233 72.87076 58 ft 13 kts 91°
2026-05-07 18:44 19.09236 72.87181 55 ft 11 kts 89°
2026-05-07 18:44 19.09211 72.87256 53 ft 11 kts 142°
2026-05-07 18:44 19.09129 72.87265 52 ft 13 kts 181°
2026-05-07 18:45 19.09061 72.87292 53 ft 5 kts 114°
2026-05-07 18:45 19.09050 72.87344 53 ft 9 kts 93°
2026-05-07 18:45 19.09054 72.87423 52 ft 12 kts 83°
2026-05-07 18:45 19.09054 72.87525 52 ft 16 kts 90°
2026-05-07 18:46 19.09055 72.87654 51 ft 19 kts 90°
2026-05-07 18:46 19.09057 72.87807 51 ft 22 kts 88°
2026-05-07 18:46 19.09059 72.87974 57 ft 19 kts 89°
2026-05-07 18:46 19.09046 72.88036 50 ft 8 kts 130°
2026-05-07 18:47 19.09009 72.88051 54 ft 3 kts 173°
2026-05-07 18:47 19.09004 72.88052 54 ft 0 kts 174°
2026-05-07 18:53 19.09003 72.88052 56 ft 1 kts 174°
2026-05-07 18:53 19.08978 72.88053 49 ft 6 kts 179°
2026-05-07 18:53 19.08924 72.88049 55 ft 8 kts 192°
2026-05-07 18:53 19.08896 72.88014 52 ft 7 kts 253°
2026-05-07 18:54 19.08888 72.87951 56 ft 10 kts 268°
2026-05-07 18:54 19.08888 72.87945 56 ft 0 kts 268°
2026-05-07 18:54 19.08886 72.87863 56 ft 40 kts 269°
2026-05-07 18:55 19.08877 72.87295 56 ft 112 kts 269°
2026-05-07 18:55 19.08860 72.86233 57 ft 172 kts 269°
2026-05-07 18:55 19.08841 72.84875 529 ft 189 kts 269°
2026-05-07 18:55 19.08822 72.83466 1351 ft 189 kts 270°
2026-05-07 18:56 19.08809 72.82087 2111 ft 190 kts 270°
2026-05-07 18:56 19.08798 72.80639 2545 ft 203 kts 269°
2026-05-07 18:56 19.08775 72.79078 2893 ft 220 kts 269°
2026-05-07 18:56 19.08751 72.77418 3225 ft 236 kts 269°
2026-05-07 18:57 19.08722 72.75590 3555 ft 254 kts 269°
2026-05-07 18:57 19.08483 72.73698 3918 ft 272 kts 249°
2026-05-07 18:57 19.07362 72.72059 4465 ft 281 kts 218°
2026-05-07 18:57 19.05586 72.71200 5152 ft 284 kts 188°
2026-05-07 18:58 19.03618 72.71376 5871 ft 286 kts 158°
2026-05-07 18:58 19.01993 72.72520 6563 ft 287 kts 134°
2026-05-07 18:58 19.00511 72.73963 7285 ft 291 kts 145°
2026-05-07 18:58 18.98614 72.74710 7992 ft 295 kts 174°
2026-05-07 18:59 18.96568 72.74779 8714 ft 298 kts 180°
2026-05-07 18:59 18.94504 72.74747 9561 ft 299 kts 181°
2026-05-07 18:59 18.92407 72.74688 10317 ft 302 kts 181°
2026-05-07 18:59 18.90254 72.74624 10754 ft 318 kts 181°
2026-05-07 19:00 18.87974 72.74559 11098 ft 336 kts 181°
2026-05-07 19:00 18.85603 72.74495 11529 ft 351 kts 181°
2026-05-07 19:00 18.83083 72.74428 11925 ft 369 kts 180°
2026-05-07 19:00 18.80458 72.74376 12368 ft 383 kts 178°
2026-05-07 19:01 18.77807 72.74595 13120 ft 386 kts 171°
2026-05-07 19:01 18.75162 72.75177 13969 ft 387 kts 164°
2026-05-07 19:01 18.72599 72.76017 14687 ft 390 kts 161°
2026-05-07 19:01 18.70001 72.76926 15347 ft 395 kts 161°
2026-05-07 19:02 18.67367 72.77856 15994 ft 400 kts 161°
2026-05-07 19:02 18.64702 72.78794 16649 ft 405 kts 162°
2026-05-07 19:02 18.62032 72.79728 17263 ft 410 kts 162°
2026-05-07 19:02 18.59311 72.80677 17890 ft 414 kts 162°
2026-05-07 19:03 18.56536 72.81642 18446 ft 419 kts 162°
2026-05-07 19:03 18.53772 72.82601 18909 ft 424 kts 162°
2026-05-07 19:03 18.50940 72.83582 19357 ft 430 kts 162°
2026-05-07 19:03 18.48074 72.84575 19799 ft 436 kts 162°
2026-05-07 19:04 18.45198 72.85571 20235 ft 441 kts 162°
2026-05-07 19:04 18.42255 72.86591 20664 ft 447 kts 162°
2026-05-07 19:04 18.39292 72.87618 20966 ft 455 kts 162°
2026-05-07 19:04 18.36248 72.88671 21312 ft 462 kts 162°
2026-05-07 19:05 18.33171 72.89737 21733 ft 466 kts 162°
2026-05-07 19:05 18.30060 72.90813 22134 ft 471 kts 162°
2026-05-07 19:05 18.26966 72.91884 22498 ft 476 kts 162°
2026-05-07 19:05 18.23778 72.92987 22870 ft 480 kts 162°
2026-05-07 19:06 18.20615 72.94082 23230 ft 485 kts 162°
2026-05-07 19:06 18.14135 72.96322 23857 ft 492 kts 162°
2026-05-07 19:06 18.10918 72.97625 24193 ft 495 kts 155°
2026-05-07 19:07 18.07928 72.99339 24573 ft 496 kts 147°
2026-05-07 19:07 18.05133 73.01493 24946 ft 498 kts 139°
2026-05-07 19:07 18.02526 73.03916 25320 ft 499 kts 137°
2026-05-07 19:07 17.99953 73.06403 25678 ft 501 kts 136°
2026-05-07 19:08 17.97368 73.08916 26041 ft 504 kts 137°
2026-05-07 19:08 17.94812 73.11392 26387 ft 506 kts 137°
2026-05-07 19:08 17.92207 73.13901 26763 ft 508 kts 137°
2026-05-07 19:08 17.89579 73.16421 27133 ft 510 kts 137°
2026-05-07 19:09 17.86966 73.18920 27511 ft 512 kts 137°
2026-05-07 19:09 17.84326 73.21440 27927 ft 512 kts 137°
2026-05-07 19:09 17.81688 73.23955 28494 ft 510 kts 137°
2026-05-07 19:09 17.79058 73.26460 29113 ft 507 kts 138°
2026-05-07 19:10 17.76470 73.28923 29703 ft 504 kts 138°
2026-05-07 19:10 17.73870 73.31397 30221 ft 502 kts 138°
2026-05-07 19:10 17.71283 73.33857 30701 ft 501 kts 138°
2026-05-07 19:10 17.68694 73.36318 31160 ft 500 kts 138°
2026-05-07 19:11 17.66149 73.38736 31642 ft 498 kts 138°
2026-05-07 19:11 17.63565 73.41191 32097 ft 497 kts 138°
2026-05-07 19:11 17.61023 73.43605 32563 ft 495 kts 138°
2026-05-07 19:11 17.58444 73.46052 33047 ft 494 kts 138°
2026-05-07 19:12 17.55928 73.48439 33505 ft 493 kts 138°
2026-05-07 19:12 17.53392 73.50844 33957 ft 492 kts 138°
2026-05-07 19:12 17.50848 73.53256 34352 ft 490 kts 138°
2026-05-07 19:12 17.48312 73.55660 34752 ft 489 kts 139°
2026-05-07 19:13 17.45789 73.58052 35174 ft 487 kts 139°
2026-05-07 19:13 17.43298 73.60411 35570 ft 486 kts 139°
2026-05-07 19:13 17.40777 73.62798 35961 ft 484 kts 139°
2026-05-07 19:13 17.38301 73.65141 36332 ft 483 kts 139°
2026-05-07 19:14 17.35794 73.67512 36711 ft 483 kts 139°
2026-05-07 19:14 17.33316 73.69855 37079 ft 482 kts 139°
2026-05-07 19:14 17.30826 73.72208 37469 ft 481 kts 139°
2026-05-07 19:14 17.28328 73.74568 37783 ft 482 kts 139°
2026-05-07 19:15 17.25826 73.76931 38083 ft 483 kts 139°
2026-05-07 19:15 17.23341 73.79277 38365 ft 484 kts 139°
2026-05-07 19:15 17.20755 73.81717 38639 ft 485 kts 139°
2026-05-07 19:15 17.18248 73.84081 38836 ft 486 kts 139°
2026-05-07 19:16 17.13211 73.88828 38858 ft 486 kts 140°
2026-05-07 19:16 17.08195 73.93553 38866 ft 486 kts 139°
2026-05-07 19:17 17.03192 73.98264 38866 ft 485 kts 139°
2026-05-07 19:17 16.98131 74.03026 38868 ft 485 kts 139°
2026-05-07 19:18 16.93138 74.07720 38869 ft 485 kts 139°
2026-05-07 19:18 16.88309 74.12634 38867 ft 485 kts 134°
2026-05-07 19:19 16.83967 74.18037 38870 ft 486 kts 129°
2026-05-07 19:19 16.79779 74.23592 38868 ft 486 kts 129°
2026-05-07 19:20 16.75609 74.29116 38870 ft 485 kts 129°
2026-05-07 19:20 16.71402 74.34670 38869 ft 485 kts 129°
2026-05-07 19:21 16.67217 74.40189 38861 ft 485 kts 129°
2026-05-07 19:21 16.63039 74.45692 38866 ft 485 kts 129°
2026-05-07 19:22 16.58833 74.51229 38862 ft 485 kts 129°
2026-05-07 19:22 16.54640 74.56745 38863 ft 485 kts 129°
2026-05-07 19:23 16.50461 74.62237 38862 ft 485 kts 129°
2026-05-07 19:23 16.46251 74.67760 38861 ft 485 kts 129°
2026-05-07 19:24 16.42062 74.73250 38862 ft 485 kts 129°
2026-05-07 19:24 16.37876 74.78734 38862 ft 485 kts 129°
2026-05-07 19:25 16.33658 74.84257 38860 ft 484 kts 130°
2026-05-07 19:25 16.29468 74.89741 38858 ft 484 kts 129°
2026-05-07 19:26 16.25266 74.95234 38856 ft 484 kts 129°
2026-05-07 19:26 16.21079 75.00704 38856 ft 483 kts 129°
2026-05-07 19:27 16.16899 75.06163 38854 ft 483 kts 129°
2026-05-07 19:27 16.12699 75.11640 38851 ft 482 kts 129°
2026-05-07 19:28 16.08518 75.17090 38851 ft 482 kts 129°
2026-05-07 19:28 16.04333 75.22542 38851 ft 482 kts 129°
2026-05-07 19:29 16.00161 75.27972 38855 ft 482 kts 129°
2026-05-07 19:29 15.95974 75.33419 38854 ft 482 kts 129°
2026-05-07 19:30 15.91779 75.38871 38859 ft 482 kts 129°
2026-05-07 19:30 15.87589 75.44313 38860 ft 482 kts 129°
2026-05-07 19:31 15.83404 75.49744 38863 ft 482 kts 129°
2026-05-07 19:31 15.79220 75.55171 38863 ft 482 kts 129°
2026-05-07 19:32 15.75020 75.60614 38868 ft 482 kts 129°
2026-05-07 19:32 15.70785 75.66098 38869 ft 482 kts 129°
2026-05-07 19:33 15.66596 75.71519 38874 ft 482 kts 129°
2026-05-07 19:33 15.62395 75.76953 38874 ft 483 kts 129°
2026-05-07 19:34 15.58167 75.82415 38870 ft 483 kts 129°
2026-05-07 19:34 15.53964 75.87842 38871 ft 483 kts 129°
2026-05-07 19:35 15.49757 75.93269 38873 ft 483 kts 129°
2026-05-07 19:35 15.45515 75.98739 38873 ft 483 kts 129°
2026-05-07 19:36 15.41319 76.04145 38870 ft 484 kts 129°
2026-05-07 19:36 15.37789 76.08690 38870 ft 484 kts 129°
2026-05-07 19:37 15.33564 76.14126 38871 ft 484 kts 129°
2026-05-07 19:37 15.29337 76.19563 38870 ft 485 kts 129°
2026-05-07 19:38 15.24397 76.25910 38869 ft 485 kts 129°
2026-05-07 19:38 15.20848 76.30469 38871 ft 484 kts 129°
2026-05-07 19:39 15.16611 76.35905 38876 ft 484 kts 129°
2026-05-07 19:39 15.12387 76.41316 38878 ft 483 kts 129°
2026-05-07 19:40 15.08170 76.46715 38880 ft 483 kts 129°
2026-05-07 19:40 15.03931 76.52139 38882 ft 483 kts 129°
2026-05-07 19:41 14.99728 76.57514 38891 ft 482 kts 129°
2026-05-07 19:41 14.95501 76.62918 38887 ft 482 kts 129°
2026-05-07 19:42 14.91271 76.68321 38887 ft 481 kts 129°
2026-05-07 19:42 14.87059 76.73698 38888 ft 480 kts 129°
2026-05-07 19:43 14.82860 76.79055 38890 ft 479 kts 129°
2026-05-07 19:43 14.78667 76.84401 38885 ft 478 kts 129°
2026-05-07 19:44 14.74485 76.89730 38888 ft 477 kts 129°
2026-05-07 19:44 14.70300 76.95058 38884 ft 477 kts 129°
2026-05-07 19:45 14.66128 77.00366 38887 ft 476 kts 129°
2026-05-07 19:45 14.62160 77.05877 38884 ft 476 kts 124°
2026-05-07 19:46 14.58783 77.11762 38887 ft 477 kts 118°
2026-05-07 19:46 14.56026 77.18000 38893 ft 478 kts 112°
2026-05-07 19:47 14.53682 77.24422 38894 ft 478 kts 111°
2026-05-07 19:47 14.51352 77.30863 38894 ft 478 kts 111°
2026-05-07 19:48 14.49018 77.37286 38897 ft 479 kts 111°
2026-05-07 19:48 14.46674 77.43722 38897 ft 479 kts 112°
2026-05-07 19:49 14.44317 77.50185 38904 ft 479 kts 112°
2026-05-07 19:49 14.41965 77.56626 38908 ft 479 kts 112°
2026-05-07 19:50 14.39617 77.63050 38910 ft 479 kts 112°
2026-05-07 19:50 14.37263 77.69485 38916 ft 479 kts 112°
2026-05-07 19:51 14.34911 77.75908 38920 ft 479 kts 112°
2026-05-07 19:51 14.32563 77.82315 38928 ft 479 kts 112°
2026-05-07 19:52 14.30200 77.88757 38927 ft 479 kts 112°
2026-05-07 19:52 14.27832 77.95204 38931 ft 479 kts 112°
2026-05-07 19:53 14.25482 78.01597 38930 ft 479 kts 112°
2026-05-07 19:53 14.23108 78.08050 38930 ft 479 kts 112°
2026-05-07 19:54 14.20748 78.14458 38935 ft 479 kts 112°
2026-05-07 19:54 14.18386 78.20866 38933 ft 478 kts 112°
2026-05-07 19:55 14.17195 78.24096 38813 ft 479 kts 112°
2026-05-07 19:55 14.16022 78.27276 38583 ft 477 kts 112°
2026-05-07 19:55 14.14837 78.30489 38313 ft 475 kts 112°
2026-05-07 19:55 14.13664 78.33666 38006 ft 472 kts 112°
2026-05-07 19:56 14.12504 78.36806 37660 ft 470 kts 112°
2026-05-07 19:56 14.11338 78.39960 37227 ft 470 kts 112°
2026-05-07 19:56 14.10186 78.43074 36749 ft 470 kts 112°
2026-05-07 19:56 14.09010 78.46253 36222 ft 470 kts 112°
2026-05-07 19:57 14.07835 78.49428 35649 ft 470 kts 112°
2026-05-07 19:57 14.06679 78.52550 35115 ft 470 kts 112°
2026-05-07 19:57 14.05500 78.55731 34568 ft 470 kts 113°
2026-05-07 19:57 14.04242 78.58839 34019 ft 470 kts 116°
2026-05-07 19:58 14.02841 78.61857 33423 ft 469 kts 118°
2026-05-07 19:58 14.01273 78.64827 32734 ft 470 kts 121°
2026-05-07 19:58 13.99605 78.67712 32012 ft 472 kts 122°
2026-05-07 19:58 13.97904 78.70620 31398 ft 473 kts 122°
2026-05-07 19:59 13.96194 78.73536 30796 ft 473 kts 122°
2026-05-07 19:59 13.94505 78.76419 30145 ft 474 kts 122°
2026-05-07 19:59 13.92787 78.79352 29362 ft 476 kts 122°
2026-05-07 19:59 13.91079 78.82267 28609 ft 478 kts 122°
2026-05-07 20:00 13.89345 78.85229 27841 ft 479 kts 122°
2026-05-07 20:00 13.87623 78.88172 27136 ft 479 kts 122°
2026-05-07 20:00 13.85934 78.91057 26713 ft 472 kts 122°
2026-05-07 20:00 13.84240 78.93952 26210 ft 468 kts 122°
2026-05-07 20:01 13.82558 78.96823 25673 ft 465 kts 122°
2026-05-07 20:01 13.80907 78.99641 25166 ft 462 kts 122°
2026-05-07 20:01 13.79249 79.02470 24447 ft 453 kts 122°
2026-05-07 20:01 13.77646 79.05203 24105 ft 448 kts 122°
2026-05-07 20:02 13.76030 79.07959 23622 ft 446 kts 122°
2026-05-07 20:02 13.74421 79.10701 23106 ft 443 kts 122°
2026-05-07 20:02 13.72848 79.13382 22611 ft 439 kts 122°
2026-05-07 20:02 13.71266 79.16077 22131 ft 436 kts 122°
2026-05-07 20:03 13.69718 79.18713 21671 ft 432 kts 122°
2026-05-07 20:03 13.68162 79.21361 21208 ft 429 kts 122°
2026-05-07 20:03 13.66629 79.23970 20749 ft 426 kts 122°
2026-05-07 20:03 13.65094 79.26581 20280 ft 423 kts 122°
2026-05-07 20:04 13.63571 79.29170 19827 ft 421 kts 122°
2026-05-07 20:04 13.62070 79.31723 19368 ft 419 kts 122°
2026-05-07 20:04 13.60551 79.34305 18907 ft 418 kts 122°
2026-05-07 20:04 13.59040 79.36873 18451 ft 416 kts 122°
2026-05-07 20:05 13.57551 79.39403 17941 ft 415 kts 122°
2026-05-07 20:05 13.56047 79.41955 17421 ft 413 kts 122°
2026-05-07 20:05 13.54557 79.44481 16917 ft 411 kts 122°
2026-05-07 20:05 13.53096 79.46957 16525 ft 405 kts 122°
2026-05-07 20:06 13.51644 79.49421 16277 ft 394 kts 122°
2026-05-07 20:06 13.50257 79.51776 16145 ft 381 kts 121°
2026-05-07 20:06 13.48898 79.54081 15992 ft 369 kts 121°
2026-05-07 20:06 13.47580 79.56315 15842 ft 358 kts 121°
2026-05-07 20:07 13.46326 79.58442 15713 ft 345 kts 121°
2026-05-07 20:07 13.45098 79.60521 15558 ft 332 kts 121°
2026-05-07 20:07 13.43925 79.62508 15430 ft 321 kts 121°
2026-05-07 20:07 13.42770 79.64464 15311 ft 313 kts 121°
2026-05-07 20:08 13.41663 79.66357 15098 ft 310 kts 121°
2026-05-07 20:08 13.40560 79.68262 14806 ft 308 kts 120°
2026-05-07 20:08 13.39465 79.70158 14505 ft 306 kts 120°
2026-05-07 20:08 13.38393 79.72014 14195 ft 304 kts 120°
2026-05-07 20:09 13.37307 79.73892 13891 ft 303 kts 120°
2026-05-07 20:09 13.36239 79.75740 13554 ft 302 kts 120°
2026-05-07 20:09 13.35160 79.77605 13229 ft 301 kts 119°
2026-05-07 20:10 13.33039 79.81271 12576 ft 296 kts 119°
2026-05-07 20:10 13.31995 79.83073 12256 ft 293 kts 119°
2026-05-07 20:10 13.30953 79.84873 11964 ft 291 kts 119°
2026-05-07 20:10 13.29928 79.86643 11658 ft 289 kts 118°
2026-05-07 20:11 13.28899 79.88420 11350 ft 287 kts 118°
2026-05-07 20:11 13.27875 79.90185 11042 ft 285 kts 118°
2026-05-07 20:11 13.26874 79.91913 10735 ft 284 kts 118°
2026-05-07 20:11 13.25863 79.93657 10433 ft 282 kts 118°
2026-05-07 20:12 13.24857 79.95392 10120 ft 281 kts 118°
2026-05-07 20:12 13.23865 79.97103 9814 ft 279 kts 118°
2026-05-07 20:12 13.22865 79.98827 9478 ft 278 kts 118°
2026-05-07 20:12 13.21886 80.00517 9148 ft 276 kts 118°
2026-05-07 20:13 13.20890 80.02233 8837 ft 274 kts 118°
2026-05-07 20:13 13.19922 80.03901 8525 ft 273 kts 118°
2026-05-07 20:13 13.18858 80.05518 8196 ft 274 kts 133°
2026-05-07 20:13 13.17238 80.06565 7864 ft 279 kts 160°
2026-05-07 20:14 13.15306 80.06756 7571 ft 281 kts 184°
2026-05-07 20:14 13.13393 80.06503 7304 ft 280 kts 186°
2026-05-07 20:14 13.11438 80.06213 7027 ft 277 kts 186°
2026-05-07 20:14 13.09584 80.05949 6961 ft 264 kts 186°
2026-05-07 20:15 13.07799 80.05707 6896 ft 252 kts 185°
2026-05-07 20:15 13.06151 80.05298 6806 ft 244 kts 209°
2026-05-07 20:15 13.04945 80.04114 6728 ft 244 kts 242°
2026-05-07 20:15 13.04276 80.02508 6441 ft 243 kts 250°
2026-05-07 20:16 13.03702 80.00871 6028 ft 242 kts 251°
2026-05-07 20:16 13.03134 79.99258 5741 ft 238 kts 250°
2026-05-07 20:16 13.02554 79.97669 5444 ft 237 kts 249°
2026-05-07 20:16 13.01968 79.96103 5163 ft 234 kts 249°
2026-05-07 20:17 13.01379 79.94551 4875 ft 232 kts 248°
2026-05-07 20:17 13.00797 79.93023 4627 ft 231 kts 248°
2026-05-07 20:17 13.00022 79.91587 4297 ft 228 kts 223°
2026-05-07 20:17 12.98674 79.90869 4019 ft 220 kts 186°
2026-05-07 20:18 12.97187 79.91060 3699 ft 212 kts 153°
2026-05-07 20:18 12.96038 79.91940 3423 ft 207 kts 135°
2026-05-07 20:18 12.94993 79.92951 3177 ft 204 kts 133°
2026-05-07 20:18 12.93975 79.93947 2927 ft 203 kts 134°
2026-05-07 20:19 12.92949 79.94938 2684 ft 200 kts 134°
2026-05-07 20:19 12.92073 79.96000 2404 ft 195 kts 112°
2026-05-07 20:19 12.91915 79.97354 2204 ft 187 kts 84°
2026-05-07 20:19 12.92193 79.98597 2201 ft 170 kts 73°
2026-05-07 20:20 12.92583 79.99713 2208 ft 166 kts 70°
2026-05-07 20:20 12.93005 80.00823 2246 ft 170 kts 70°
2026-05-07 20:20 12.93438 80.01958 2285 ft 167 kts 70°
2026-05-07 20:20 12.93860 80.03073 2350 ft 172 kts 70°
2026-05-07 20:21 12.94291 80.04226 2254 ft 172 kts 70°
2026-05-07 20:21 12.94705 80.05336 2023 ft 163 kts 70°
2026-05-07 20:21 12.95100 80.06396 1810 ft 153 kts 70°
2026-05-07 20:21 12.95473 80.07398 1638 ft 150 kts 70°
2026-05-07 20:22 12.95848 80.08407 1428 ft 150 kts 70°
2026-05-07 20:22 12.96217 80.09397 1265 ft 149 kts 70°
2026-05-07 20:22 12.96592 80.10401 1082 ft 149 kts 71°
2026-05-07 20:22 12.96957 80.11383 881 ft 149 kts 70°
2026-05-07 20:23 12.97329 80.12382 693 ft 148 kts 70°
2026-05-07 20:23 12.97700 80.13373 471 ft 148 kts 69°
2026-05-07 20:23 12.98065 80.14348 307 ft 147 kts 70°
2026-05-07 20:23 12.98426 80.15330 64 ft 145 kts 71°
2026-05-07 20:24 12.98741 80.16165 58 ft 97 kts 69°
2026-05-07 20:24 12.98921 80.16647 59 ft 47 kts 69°
2026-05-07 20:24 12.98993 80.16836 55 ft 24 kts 69°
2026-05-07 20:24 12.99062 80.17018 60 ft 29 kts 69°
2026-05-07 20:25 12.99110 80.17154 54 ft 1 kts 83°
2026-05-07 20:25 12.99109 80.17166 56 ft 7 kts 95°
2026-05-07 20:25 12.99058 80.17212 55 ft 12 kts 155°
2026-05-07 20:25 12.98971 80.17237 56 ft 14 kts 188°
2026-05-07 20:26 12.98914 80.17154 56 ft 17 kts 249°
2026-05-07 20:26 12.98867 80.17028 59 ft 20 kts 249°
2026-05-07 20:26 12.98812 80.16881 57 ft 23 kts 249°
2026-05-07 20:26 12.98753 80.16725 57 ft 20 kts 248°
2026-05-07 20:27 12.98698 80.16580 57 ft 23 kts 249°
2026-05-07 20:27 12.98658 80.16475 56 ft 25 kts 248°
2026-05-07 20:27 12.98570 80.16242 56 ft 28 kts 249°
2026-05-07 20:27 12.98531 80.16140 56 ft 5 kts 248°
2026-05-07 20:28 12.98531 80.16139 56 ft 0 kts 246°
2026-05-07 20:29 12.98525 80.16135 54 ft 4 kts 206°
2026-05-07 20:29 12.98465 80.16144 56 ft 15 kts 159°
2026-05-07 20:29 12.98395 80.16163 59 ft 4 kts 202°
2026-05-07 20:29 12.98364 80.16128 62 ft 10 kts 238°
2026-05-07 20:30 12.98327 80.16045 58 ft 16 kts 248°
2026-05-07 20:30 12.98306 80.15990 57 ft 1 kts 231°
2026-05-07 20:30 12.98294 80.15987 56 ft 0 kts 176°
2026-05-07 20:30 12.98289 80.15986 57 ft 0 kts 193°
2026-05-07 20:31 12.98269 80.15983 58 ft 5 kts 182°
2026-05-07 20:31 12.98260 80.15983 57 ft 0 kts 177°
2026-05-07 20:31 12.98254 80.15984 60 ft 1 kts 173°
2026-05-07 20:31 12.98247 80.15985 56 ft 0 kts 169°
2026-05-07 20:32 12.98244 80.15986 57 ft 1 kts 168°
2026-05-07 20:32 12.98239 80.15987 56 ft 0 kts 167°
2026-05-07 20:33 12.98239 80.15983 56 ft 0 kts 160°